Year,Month,Day,Hour,Minute,Value (Times are PST for temperature in C)
2008,09,30,00,00,11.60
2008,09,30,00,01,11.60
2008,09,30,00,02,11.60
2008,09,30,00,03,11.60
2008,09,30,00,04,11.60
2008,09,30,00,05,11.60
2008,09,30,00,06,11.60
2008,09,30,00,07,11.60
2008,09,30,00,08,11.60
2008,09,30,00,09,11.70
2008,09,30,00,10,11.70
2008,09,30,00,11,11.70
2008,09,30,00,12,11.70
2008,09,30,00,13,11.70
2008,09,30,00,14,11.80
2008,09,30,00,15,11.80
2008,09,30,00,16,11.80
2008,09,30,00,17,11.80
2008,09,30,00,18,11.80
2008,09,30,00,19,11.80
2008,09,30,00,20,11.80
2008,09,30,00,21,11.80
2008,09,30,00,22,11.80
2008,09,30,00,23,11.80
2008,09,30,00,24,11.80
2008,09,30,00,25,11.80
2008,09,30,00,26,11.80
2008,09,30,00,27,11.80
2008,09,30,00,28,11.80
2008,09,30,00,29,11.80
2008,09,30,00,30,11.80
2008,09,30,00,31,11.80
2008,09,30,00,32,11.80
2008,09,30,00,33,11.80
2008,09,30,00,34,11.70
2008,09,30,00,35,11.70
2008,09,30,00,36,11.70
2008,09,30,00,37,11.70
2008,09,30,00,38,11.70
2008,09,30,00,39,11.70
2008,09,30,00,40,11.70
2008,09,30,00,41,11.70
2008,09,30,00,42,11.80
2008,09,30,00,43,11.80
2008,09,30,00,44,11.80
2008,09,30,00,45,11.80
2008,09,30,00,46,11.80
2008,09,30,00,47,11.90
2008,09,30,00,48,11.90
2008,09,30,00,49,11.90
2008,09,30,00,50,11.90
2008,09,30,00,51,11.90
2008,09,30,00,52,11.90
2008,09,30,00,53,11.90
2008,09,30,00,54,12.00
2008,09,30,00,55,12.10
2008,09,30,00,56,12.10
2008,09,30,00,57,12.20
2008,09,30,00,58,12.30
2008,09,30,00,59,12.40
2008,09,30,01,00,12.50
2008,09,30,01,01,12.60
2008,09,30,01,02,12.70
2008,09,30,01,03,12.80
2008,09,30,01,04,12.80
2008,09,30,01,05,12.90
2008,09,30,01,06,13.00
2008,09,30,01,07,13.00
2008,09,30,01,08,13.10
2008,09,30,01,09,13.10
2008,09,30,01,10,13.20
2008,09,30,01,11,13.20
2008,09,30,01,12,13.30
2008,09,30,01,13,13.30
2008,09,30,01,14,13.30
2008,09,30,01,15,13.30
2008,09,30,01,16,13.30
2008,09,30,01,17,13.30
2008,09,30,01,18,13.30
2008,09,30,01,19,13.30
2008,09,30,01,20,13.30
2008,09,30,01,21,13.30
2008,09,30,01,22,13.20
2008,09,30,01,23,13.20
2008,09,30,01,24,13.20
2008,09,30,01,25,13.20
2008,09,30,01,26,13.20
2008,09,30,01,27,13.30
2008,09,30,01,28,13.30
2008,09,30,01,29,13.30
2008,09,30,01,30,13.30
2008,09,30,01,31,13.20
2008,09,30,01,32,13.20
2008,09,30,01,33,13.20
2008,09,30,01,34,13.20
2008,09,30,01,35,13.20
2008,09,30,01,36,13.20
2008,09,30,01,37,13.10
2008,09,30,01,38,13.10
2008,09,30,01,39,13.10
2008,09,30,01,40,13.10
2008,09,30,01,41,13.10
2008,09,30,01,42,13.10
2008,09,30,01,43,13.10
2008,09,30,01,44,13.10
2008,09,30,01,45,13.10
2008,09,30,01,46,13.10
2008,09,30,01,47,13.10
2008,09,30,01,48,13.10
2008,09,30,01,49,13.10
2008,09,30,01,50,13.10
2008,09,30,01,51,13.10
2008,09,30,01,52,13.10
2008,09,30,01,53,13.10
2008,09,30,01,54,13.10
2008,09,30,01,55,13.10
2008,09,30,01,56,13.10
2008,09,30,01,57,13.10
2008,09,30,01,58,13.10
2008,09,30,01,59,13.10
2008,09,30,02,00,13.10
2008,09,30,02,01,13.10
2008,09,30,02,02,13.10
2008,09,30,02,03,13.10
2008,09,30,02,04,13.10
2008,09,30,02,05,13.10
2008,09,30,02,06,13.10
2008,09,30,02,07,13.00
2008,09,30,02,08,13.00
2008,09,30,02,09,13.00
2008,09,30,02,10,13.00
2008,09,30,02,11,12.90
2008,09,30,02,12,12.90
2008,09,30,02,13,12.90
2008,09,30,02,14,12.80
2008,09,30,02,15,12.80
2008,09,30,02,16,12.80
2008,09,30,02,17,12.80
2008,09,30,02,18,12.80
2008,09,30,02,19,12.80
2008,09,30,02,20,12.80
2008,09,30,02,21,12.80
2008,09,30,02,22,12.80
2008,09,30,02,23,12.70
2008,09,30,02,24,12.70
2008,09,30,02,25,12.70
2008,09,30,02,26,12.70
2008,09,30,02,27,12.70
2008,09,30,02,28,12.70
2008,09,30,02,29,12.60
2008,09,30,02,30,12.60
2008,09,30,02,31,12.50
2008,09,30,02,32,12.50
2008,09,30,02,33,12.40
2008,09,30,02,34,12.40
2008,09,30,02,35,12.30
2008,09,30,02,36,12.30
2008,09,30,02,37,12.30
2008,09,30,02,38,12.30
2008,09,30,02,39,12.30
2008,09,30,02,40,12.40
2008,09,30,02,41,12.40
2008,09,30,02,42,12.40
2008,09,30,02,43,12.40
2008,09,30,02,44,12.40
2008,09,30,02,45,12.40
2008,09,30,02,46,12.40
2008,09,30,02,47,12.40
2008,09,30,02,48,12.40
2008,09,30,02,49,12.30
2008,09,30,02,50,12.30
2008,09,30,02,51,12.20
2008,09,30,02,52,12.20
2008,09,30,02,53,12.10
2008,09,30,02,54,12.00
2008,09,30,02,55,12.00
2008,09,30,02,56,11.90
2008,09,30,02,57,11.90
2008,09,30,02,58,11.90
2008,09,30,02,59,11.80
2008,09,30,03,00,11.80
2008,09,30,03,01,11.80
2008,09,30,03,02,11.80
2008,09,30,03,03,11.70
2008,09,30,03,04,11.70
2008,09,30,03,05,11.60
2008,09,30,03,06,11.60
2008,09,30,03,07,11.60
2008,09,30,03,08,11.60
2008,09,30,03,09,11.60
2008,09,30,03,10,11.60
2008,09,30,03,11,11.60
2008,09,30,03,12,11.50
2008,09,30,03,13,11.50
2008,09,30,03,14,11.50
2008,09,30,03,15,11.50
2008,09,30,03,16,11.40
2008,09,30,03,17,11.40
2008,09,30,03,18,11.40
2008,09,30,03,19,11.40
2008,09,30,03,20,11.40
2008,09,30,03,21,11.30
2008,09,30,03,22,11.30
2008,09,30,03,23,11.30
2008,09,30,03,24,11.30
2008,09,30,03,25,11.30
2008,09,30,03,26,11.20
2008,09,30,03,27,11.20
2008,09,30,03,28,11.20
2008,09,30,03,29,11.20
2008,09,30,03,30,11.20
2008,09,30,03,31,11.20
2008,09,30,03,32,11.20
2008,09,30,03,33,11.20
2008,09,30,03,34,11.20
2008,09,30,03,35,11.20
2008,09,30,03,36,11.10
2008,09,30,03,37,11.10
2008,09,30,03,38,11.10
2008,09,30,03,39,11.10
2008,09,30,03,40,11.10
2008,09,30,03,41,11.10
2008,09,30,03,42,11.00
2008,09,30,03,43,11.00
2008,09,30,03,44,11.00
2008,09,30,03,45,11.00
2008,09,30,03,46,11.00
2008,09,30,03,47,11.00
2008,09,30,03,48,10.90
2008,09,30,03,49,10.90
2008,09,30,03,50,10.90
2008,09,30,03,51,10.90
2008,09,30,03,52,10.90
2008,09,30,03,53,10.90
2008,09,30,03,54,10.90
2008,09,30,03,55,10.90
2008,09,30,03,56,10.90
2008,09,30,03,57,10.90
2008,09,30,03,58,10.80
2008,09,30,03,59,10.80
2008,09,30,04,00,10.80
2008,09,30,04,01,10.80
2008,09,30,04,02,10.80
2008,09,30,04,03,10.80
2008,09,30,04,04,10.80
2008,09,30,04,05,10.80
2008,09,30,04,06,10.80
2008,09,30,04,07,10.80
2008,09,30,04,08,10.80
2008,09,30,04,09,10.70
2008,09,30,04,10,10.70
2008,09,30,04,11,10.70
2008,09,30,04,12,10.70
2008,09,30,04,13,10.70
2008,09,30,04,14,10.70
2008,09,30,04,15,10.70
2008,09,30,04,16,10.70
2008,09,30,04,17,10.70
2008,09,30,04,18,10.70
2008,09,30,04,19,10.70
2008,09,30,04,20,10.70
2008,09,30,04,21,10.60
2008,09,30,04,22,10.60
2008,09,30,04,23,10.60
2008,09,30,04,24,10.60
2008,09,30,04,25,10.60
2008,09,30,04,26,10.60
2008,09,30,04,27,10.60
2008,09,30,04,28,10.60
2008,09,30,04,29,10.60
2008,09,30,04,30,10.60
2008,09,30,04,31,10.60
2008,09,30,04,32,10.60
2008,09,30,04,33,10.60
2008,09,30,04,34,10.60
2008,09,30,04,35,10.60
2008,09,30,04,36,10.60
2008,09,30,04,37,10.60
2008,09,30,04,38,10.60
2008,09,30,04,39,10.60
2008,09,30,04,40,10.60
2008,09,30,04,41,10.60
2008,09,30,04,42,10.60
2008,09,30,04,43,10.60
2008,09,30,04,44,10.60
2008,09,30,04,45,10.60
2008,09,30,04,46,10.60
2008,09,30,04,47,10.60
2008,09,30,04,48,10.60
2008,09,30,04,49,10.60
2008,09,30,04,50,10.60
2008,09,30,04,51,10.50
2008,09,30,04,52,10.50
2008,09,30,04,53,10.50
2008,09,30,04,54,10.50
2008,09,30,04,55,10.40
2008,09,30,04,56,10.40
2008,09,30,04,57,10.40
2008,09,30,04,58,10.40
2008,09,30,04,59,10.40
2008,09,30,05,00,10.40
2008,09,30,05,01,10.30
2008,09,30,05,02,10.30
2008,09,30,05,03,10.30
2008,09,30,05,04,10.30
2008,09,30,05,05,10.30
2008,09,30,05,06,10.30
2008,09,30,05,07,10.30
2008,09,30,05,08,10.30
2008,09,30,05,09,10.20
2008,09,30,05,10,10.20
2008,09,30,05,11,10.20
2008,09,30,05,12,10.20
2008,09,30,05,13,10.20
2008,09,30,05,14,10.20
2008,09,30,05,15,10.20
2008,09,30,05,16,10.20
2008,09,30,05,17,10.20
2008,09,30,05,18,10.10
2008,09,30,05,19,10.10
2008,09,30,05,20,10.10
2008,09,30,05,21,10.10
2008,09,30,05,22,10.10
2008,09,30,05,23,10.10
2008,09,30,05,24,10.10
2008,09,30,05,25,10.10
2008,09,30,05,26,10.10
2008,09,30,05,27,10.00
2008,09,30,05,28,10.00
2008,09,30,05,29,10.00
2008,09,30,05,30,10.00
2008,09,30,05,31,10.00
2008,09,30,05,32,10.00
2008,09,30,05,33,10.00
2008,09,30,05,34,10.00
2008,09,30,05,35,10.00
2008,09,30,05,36,10.00
2008,09,30,05,37,10.00
2008,09,30,05,38,10.00
2008,09,30,05,39,10.00
2008,09,30,05,40,10.00
2008,09,30,05,41,10.00
2008,09,30,05,42,10.00
2008,09,30,05,43,10.00
2008,09,30,05,44,10.00
2008,09,30,05,45,10.00
2008,09,30,05,46,10.00
2008,09,30,05,47,10.10
2008,09,30,05,48,10.00
2008,09,30,05,49,10.10
2008,09,30,05,50,10.10
2008,09,30,05,51,10.10
2008,09,30,05,52,10.10
2008,09,30,05,53,10.10
2008,09,30,05,54,10.10
2008,09,30,05,55,10.10
2008,09,30,05,56,10.10
2008,09,30,05,57,10.10
2008,09,30,05,58,10.10
2008,09,30,05,59,10.10
2008,09,30,06,00,10.10
2008,09,30,06,01,10.10
2008,09,30,06,02,10.10
2008,09,30,06,03,10.10
2008,09,30,06,04,10.10
2008,09,30,06,05,10.10
2008,09,30,06,06,10.10
2008,09,30,06,07,10.00
2008,09,30,06,08,10.00
2008,09,30,06,09,10.00
2008,09,30,06,10,10.00
2008,09,30,06,11,10.00
2008,09,30,06,12,9.90
2008,09,30,06,13,9.90
2008,09,30,06,14,9.90
2008,09,30,06,15,9.90
2008,09,30,06,16,9.90
2008,09,30,06,17,9.90
2008,09,30,06,18,9.90
2008,09,30,06,19,9.90
2008,09,30,06,20,9.90
2008,09,30,06,21,9.80
2008,09,30,06,22,9.80
2008,09,30,06,23,9.80
2008,09,30,06,24,9.80
2008,09,30,06,25,9.80
2008,09,30,06,26,9.80
2008,09,30,06,27,9.70
2008,09,30,06,28,9.70
2008,09,30,06,29,9.70
2008,09,30,06,30,9.70
2008,09,30,06,31,9.60
2008,09,30,06,32,9.60
2008,09,30,06,33,9.60
2008,09,30,06,34,9.60
2008,09,30,06,35,9.60
2008,09,30,06,36,9.60
2008,09,30,06,37,9.60
2008,09,30,06,38,9.60
2008,09,30,06,39,9.50
2008,09,30,06,40,9.50
2008,09,30,06,41,9.50
2008,09,30,06,42,9.50
2008,09,30,06,43,9.50
2008,09,30,06,44,9.50
2008,09,30,06,45,9.50
2008,09,30,06,46,9.50
2008,09,30,06,47,9.50
2008,09,30,06,48,9.50
2008,09,30,06,49,9.50
2008,09,30,06,50,9.50
2008,09,30,06,51,9.50
2008,09,30,06,52,9.50
2008,09,30,06,53,9.50
2008,09,30,06,54,9.50
2008,09,30,06,55,9.50
2008,09,30,06,56,9.50
2008,09,30,06,57,9.50
2008,09,30,06,58,9.50
2008,09,30,06,59,9.50
2008,09,30,07,00,9.50
2008,09,30,07,01,9.50
2008,09,30,07,02,9.50
2008,09,30,07,03,9.50
2008,09,30,07,04,9.50
2008,09,30,07,05,9.50
2008,09,30,07,06,9.50
2008,09,30,07,07,9.50
2008,09,30,07,08,9.50
2008,09,30,07,09,9.50
2008,09,30,07,10,9.50
2008,09,30,07,11,9.60
2008,09,30,07,12,9.60
2008,09,30,07,13,9.60
2008,09,30,07,14,9.60
2008,09,30,07,15,9.60
2008,09,30,07,16,9.60
2008,09,30,07,17,9.60
2008,09,30,07,18,9.60
2008,09,30,07,19,9.60
2008,09,30,07,20,9.60
2008,09,30,07,21,9.60
2008,09,30,07,22,9.60
2008,09,30,07,23,9.60
2008,09,30,07,24,9.60
2008,09,30,07,25,9.60
2008,09,30,07,26,9.60
2008,09,30,07,27,9.60
2008,09,30,07,28,9.60
2008,09,30,07,29,9.60
2008,09,30,07,30,9.60
2008,09,30,07,31,9.60
2008,09,30,07,32,9.60
2008,09,30,07,33,9.60
2008,09,30,07,34,9.60
2008,09,30,07,35,9.70
2008,09,30,07,36,9.70
2008,09,30,07,37,9.70
2008,09,30,07,38,9.70
2008,09,30,07,39,9.70
2008,09,30,07,40,9.70
2008,09,30,07,41,9.70
2008,09,30,07,42,9.70
2008,09,30,07,43,9.70
2008,09,30,07,44,9.70
2008,09,30,07,45,9.70
2008,09,30,07,46,9.70
2008,09,30,07,47,9.70
2008,09,30,07,48,9.70
2008,09,30,07,49,9.70
2008,09,30,07,50,9.80
2008,09,30,07,51,9.80
2008,09,30,07,52,9.80
2008,09,30,07,53,9.80
2008,09,30,07,54,9.80
2008,09,30,07,55,9.80
2008,09,30,07,56,9.80
2008,09,30,07,57,9.80
2008,09,30,07,58,9.80
2008,09,30,07,59,9.80
2008,09,30,08,00,9.90
2008,09,30,08,01,9.90
2008,09,30,08,02,9.90
2008,09,30,08,03,9.90
2008,09,30,08,04,9.90
2008,09,30,08,05,10.00
2008,09,30,08,06,10.00
2008,09,30,08,07,10.10
2008,09,30,08,08,10.10
2008,09,30,08,09,10.10
2008,09,30,08,10,10.10
2008,09,30,08,11,10.10
2008,09,30,08,12,10.20
2008,09,30,08,13,10.20
2008,09,30,08,14,10.30
2008,09,30,08,15,10.30
2008,09,30,08,16,10.40
2008,09,30,08,17,10.50
2008,09,30,08,18,10.50
2008,09,30,08,19,10.60
2008,09,30,08,20,10.70
2008,09,30,08,21,10.70
2008,09,30,08,22,10.80
2008,09,30,08,23,10.90
2008,09,30,08,24,10.90
2008,09,30,08,25,11.00
2008,09,30,08,26,11.10
2008,09,30,08,27,11.10
2008,09,30,08,28,11.20
2008,09,30,08,29,11.30
2008,09,30,08,30,11.50
2008,09,30,08,31,11.60
2008,09,30,08,32,11.80
2008,09,30,08,33,11.90
2008,09,30,08,34,12.00
2008,09,30,08,35,12.10
2008,09,30,08,36,12.20
2008,09,30,08,37,12.30
2008,09,30,08,38,12.40
2008,09,30,08,39,12.40
2008,09,30,08,40,12.50
2008,09,30,08,41,12.60
2008,09,30,08,42,12.70
2008,09,30,08,43,12.80
2008,09,30,08,44,12.90
2008,09,30,08,45,13.00
2008,09,30,08,46,13.10
2008,09,30,08,47,13.10
2008,09,30,08,48,13.20
2008,09,30,08,49,13.20
2008,09,30,08,50,13.20
2008,09,30,08,51,13.30
2008,09,30,08,52,13.40
2008,09,30,08,53,13.50
2008,09,30,08,54,13.60
2008,09,30,08,55,13.80
2008,09,30,08,56,13.90
2008,09,30,08,57,13.90
2008,09,30,08,58,14.00
2008,09,30,08,59,14.10
2008,09,30,09,00,14.20
2008,09,30,09,01,14.30
2008,09,30,09,02,14.30
2008,09,30,09,03,14.40
2008,09,30,09,04,14.40
2008,09,30,09,05,14.40
2008,09,30,09,06,14.50
2008,09,30,09,07,14.50
2008,09,30,09,08,14.60
2008,09,30,09,09,14.60
2008,09,30,09,10,14.60
2008,09,30,09,11,14.60
2008,09,30,09,12,14.60
2008,09,30,09,13,14.70
2008,09,30,09,14,14.70
2008,09,30,09,15,14.70
2008,09,30,09,16,14.70
2008,09,30,09,17,14.70
2008,09,30,09,18,14.70
2008,09,30,09,19,14.70
2008,09,30,09,20,14.70
2008,09,30,09,21,14.70
2008,09,30,09,22,14.80
2008,09,30,09,23,14.90
2008,09,30,09,24,15.00
2008,09,30,09,25,15.00
2008,09,30,09,26,15.00
2008,09,30,09,27,15.00
2008,09,30,09,28,15.20
2008,09,30,09,29,15.30
2008,09,30,09,30,15.50
2008,09,30,09,31,15.70
2008,09,30,09,32,15.80
2008,09,30,09,33,15.90
2008,09,30,09,34,16.00
2008,09,30,09,35,16.10
2008,09,30,09,36,16.10
2008,09,30,09,37,16.20
2008,09,30,09,38,16.20
2008,09,30,09,39,16.40
2008,09,30,09,40,16.60
2008,09,30,09,41,16.80
2008,09,30,09,42,17.00
2008,09,30,09,43,17.10
2008,09,30,09,44,17.20
2008,09,30,09,45,17.30
2008,09,30,09,46,17.40
2008,09,30,09,47,17.40
2008,09,30,09,48,17.50
2008,09,30,09,49,17.60
2008,09,30,09,50,17.60
2008,09,30,09,51,17.70
2008,09,30,09,52,17.70
2008,09,30,09,53,17.70
2008,09,30,09,54,17.70
2008,09,30,09,55,17.70
2008,09,30,09,56,17.70
2008,09,30,09,57,17.70
2008,09,30,09,58,17.60
2008,09,30,09,59,17.60
2008,09,30,10,00,17.50
2008,09,30,10,01,17.50
2008,09,30,10,02,17.40
2008,09,30,10,03,17.40
2008,09,30,10,04,17.40
2008,09,30,10,05,17.30
2008,09,30,10,06,17.10
2008,09,30,10,07,17.00
2008,09,30,10,08,16.80
2008,09,30,10,09,16.80
2008,09,30,10,10,16.70
2008,09,30,10,11,16.70
2008,09,30,10,12,16.60
2008,09,30,10,13,16.60
2008,09,30,10,14,16.60
2008,09,30,10,15,16.60
2008,09,30,10,16,16.60
2008,09,30,10,17,16.60
2008,09,30,10,18,16.60
2008,09,30,10,19,16.60
2008,09,30,10,20,16.60
2008,09,30,10,21,16.60
2008,09,30,10,22,16.60
2008,09,30,10,23,16.50
2008,09,30,10,24,16.60
2008,09,30,10,25,16.60
2008,09,30,10,26,16.60
2008,09,30,10,27,16.50
2008,09,30,10,28,16.50
2008,09,30,10,29,16.50
2008,09,30,10,30,16.50
2008,09,30,10,31,16.50
2008,09,30,10,32,16.40
2008,09,30,10,33,16.40
2008,09,30,10,34,16.30
2008,09,30,10,35,16.30
2008,09,30,10,36,16.20
2008,09,30,10,37,16.10
2008,09,30,10,38,16.00
2008,09,30,10,39,15.80
2008,09,30,10,40,15.80
2008,09,30,10,41,15.70
2008,09,30,10,42,15.70
2008,09,30,10,43,15.70
2008,09,30,10,44,15.60
2008,09,30,10,45,15.60
2008,09,30,10,46,15.50
2008,09,30,10,47,15.50
2008,09,30,10,48,15.50
2008,09,30,10,49,15.50
2008,09,30,10,50,15.50
2008,09,30,10,51,15.50
2008,09,30,10,52,15.50
2008,09,30,10,53,15.60
2008,09,30,10,54,15.60
2008,09,30,10,55,15.60
2008,09,30,10,56,15.70
2008,09,30,10,57,15.70
2008,09,30,10,58,15.70
2008,09,30,10,59,15.80
2008,09,30,11,00,15.90
2008,09,30,11,01,15.90
2008,09,30,11,02,16.00
2008,09,30,11,03,16.10
2008,09,30,11,04,16.10
2008,09,30,11,05,16.20
2008,09,30,11,06,16.20
2008,09,30,11,07,16.30
2008,09,30,11,08,16.30
2008,09,30,11,09,16.40
2008,09,30,11,10,16.40
2008,09,30,11,11,16.50
2008,09,30,11,12,16.60
2008,09,30,11,13,16.70
2008,09,30,11,14,16.80
2008,09,30,11,15,16.80
2008,09,30,11,16,16.90
2008,09,30,11,17,17.00
2008,09,30,11,18,17.10
2008,09,30,11,19,17.10
2008,09,30,11,20,17.20
2008,09,30,11,21,17.30
2008,09,30,11,22,17.30
2008,09,30,11,23,17.40
2008,09,30,11,24,17.40
2008,09,30,11,25,17.50
2008,09,30,11,26,17.50
2008,09,30,11,27,17.60
2008,09,30,11,28,17.60
2008,09,30,11,29,17.60
2008,09,30,11,30,17.60
2008,09,30,11,31,17.50
2008,09,30,11,32,17.50
2008,09,30,11,33,17.50
2008,09,30,11,34,17.50
2008,09,30,11,35,17.50
2008,09,30,11,36,17.60
2008,09,30,11,37,17.60
2008,09,30,11,38,17.70
2008,09,30,11,39,17.70
2008,09,30,11,40,17.70
2008,09,30,11,41,17.60
2008,09,30,11,42,17.70
2008,09,30,11,43,17.70
2008,09,30,11,44,17.70
2008,09,30,11,45,17.80
2008,09,30,11,46,17.80
2008,09,30,11,47,17.80
2008,09,30,11,48,17.80
2008,09,30,11,49,17.70
2008,09,30,11,50,17.70
2008,09,30,11,51,17.70
2008,09,30,11,52,17.80
2008,09,30,11,53,17.90
2008,09,30,11,54,17.90
2008,09,30,11,55,18.00
2008,09,30,11,56,18.00
2008,09,30,11,57,18.00
2008,09,30,11,58,18.00
2008,09,30,11,59,18.10
2008,09,30,12,00,18.10
2008,09,30,12,01,18.10
2008,09,30,12,02,18.20
2008,09,30,12,03,18.20
2008,09,30,12,04,18.20
2008,09,30,12,05,18.30
2008,09,30,12,06,18.30
2008,09,30,12,07,18.30
2008,09,30,12,08,18.40
2008,09,30,12,09,18.30
2008,09,30,12,10,18.40
2008,09,30,12,11,18.40
2008,09,30,12,12,18.40
2008,09,30,12,13,18.40
2008,09,30,12,14,18.40
2008,09,30,12,15,18.50
2008,09,30,12,16,18.50
2008,09,30,12,17,18.50
2008,09,30,12,18,18.50
2008,09,30,12,19,18.40
2008,09,30,12,20,18.30
2008,09,30,12,21,18.20
2008,09,30,12,22,18.20
2008,09,30,12,23,18.10
2008,09,30,12,24,18.10
2008,09,30,12,25,18.20
2008,09,30,12,26,18.20
2008,09,30,12,27,18.20
2008,09,30,12,28,18.20
2008,09,30,12,29,18.20
2008,09,30,12,30,18.10
2008,09,30,12,31,18.00
2008,09,30,12,32,17.90
2008,09,30,12,33,17.80
2008,09,30,12,34,17.70
2008,09,30,12,35,17.50
2008,09,30,12,36,17.30
2008,09,30,12,37,17.20
2008,09,30,12,38,17.20
2008,09,30,12,39,17.20
2008,09,30,12,40,17.20
2008,09,30,12,41,17.20
2008,09,30,12,42,17.20
2008,09,30,12,43,17.20
2008,09,30,12,44,17.20
2008,09,30,12,45,17.30
2008,09,30,12,46,17.30
2008,09,30,12,47,17.20
2008,09,30,12,48,17.10
2008,09,30,12,49,17.00
2008,09,30,12,50,16.90
2008,09,30,12,51,16.90
2008,09,30,12,52,16.80
2008,09,30,12,53,16.80
2008,09,30,12,54,16.70
2008,09,30,12,55,16.70
2008,09,30,12,56,16.70
2008,09,30,12,57,16.60
2008,09,30,12,58,16.50
2008,09,30,12,59,16.50
2008,09,30,13,00,16.40
2008,09,30,13,01,16.40
2008,09,30,13,02,16.40
2008,09,30,13,03,16.40
2008,09,30,13,04,16.40
2008,09,30,13,05,16.40
2008,09,30,13,06,16.50
2008,09,30,13,07,16.50
2008,09,30,13,08,16.60
2008,09,30,13,09,16.60
2008,09,30,13,10,16.70
2008,09,30,13,11,16.70
2008,09,30,13,12,16.80
2008,09,30,13,13,16.80
2008,09,30,13,14,16.80
2008,09,30,13,15,16.90
2008,09,30,13,16,17.00
2008,09,30,13,17,17.10
2008,09,30,13,18,17.20
2008,09,30,13,19,17.30
2008,09,30,13,20,17.30
2008,09,30,13,21,17.40
2008,09,30,13,22,17.50
2008,09,30,13,23,17.60
2008,09,30,13,24,17.60
2008,09,30,13,25,17.70
2008,09,30,13,26,17.80
2008,09,30,13,27,17.90
2008,09,30,13,28,18.00
2008,09,30,13,29,18.00
2008,09,30,13,30,18.10
2008,09,30,13,31,18.20
2008,09,30,13,32,18.20
2008,09,30,13,33,18.20
2008,09,30,13,34,18.20
2008,09,30,13,35,18.20
2008,09,30,13,36,18.20
2008,09,30,13,37,18.20
2008,09,30,13,38,18.20
2008,09,30,13,39,18.20
2008,09,30,13,40,18.20
2008,09,30,13,41,18.20
2008,09,30,13,42,18.20
2008,09,30,13,43,18.30
2008,09,30,13,44,18.30
2008,09,30,13,45,18.20
2008,09,30,13,46,18.20
2008,09,30,13,47,18.20
2008,09,30,13,48,18.20
2008,09,30,13,49,18.20
2008,09,30,13,50,18.30
2008,09,30,13,51,18.30
2008,09,30,13,52,18.30
2008,09,30,13,53,18.40
2008,09,30,13,54,18.40
2008,09,30,13,55,18.40
2008,09,30,13,56,18.40
2008,09,30,13,57,18.40
2008,09,30,13,58,18.50
2008,09,30,13,59,18.50
2008,09,30,14,00,18.50
2008,09,30,14,01,18.50
2008,09,30,14,02,18.50
2008,09,30,14,03,18.40
2008,09,30,14,04,18.50
2008,09,30,14,05,18.50
2008,09,30,14,06,18.50
2008,09,30,14,07,18.50
2008,09,30,14,08,18.60
2008,09,30,14,09,18.60
2008,09,30,14,10,18.60
2008,09,30,14,11,18.60
2008,09,30,14,12,18.70
2008,09,30,14,13,18.60
2008,09,30,14,14,18.60
2008,09,30,14,15,18.50
2008,09,30,14,16,18.40
2008,09,30,14,17,18.30
2008,09,30,14,18,18.20
2008,09,30,14,19,18.10
2008,09,30,14,20,18.00
2008,09,30,14,21,18.00
2008,09,30,14,22,18.00
2008,09,30,14,23,18.00
2008,09,30,14,24,18.00
2008,09,30,14,25,18.00
2008,09,30,14,26,18.00
2008,09,30,14,27,18.00
2008,09,30,14,28,18.10
2008,09,30,14,29,18.10
2008,09,30,14,30,18.10
2008,09,30,14,31,18.10
2008,09,30,14,32,18.20
2008,09,30,14,33,18.30
2008,09,30,14,34,18.40
2008,09,30,14,35,18.50
2008,09,30,14,36,18.60
2008,09,30,14,37,18.60
2008,09,30,14,38,18.70
2008,09,30,14,39,18.80
2008,09,30,14,40,18.80
2008,09,30,14,41,18.90
2008,09,30,14,42,18.90
2008,09,30,14,43,18.90
2008,09,30,14,44,18.90
2008,09,30,14,45,19.00
2008,09,30,14,46,19.00
2008,09,30,14,47,19.00
2008,09,30,14,48,19.00
2008,09,30,14,49,19.00
2008,09,30,14,50,18.90
2008,09,30,14,51,18.90
2008,09,30,14,52,18.90
2008,09,30,14,53,18.90
2008,09,30,14,54,18.90
2008,09,30,14,55,18.90
2008,09,30,14,56,18.90
2008,09,30,14,57,18.90
2008,09,30,14,58,18.90
2008,09,30,14,59,18.80
2008,09,30,15,00,18.80
2008,09,30,15,01,18.70
2008,09,30,15,02,18.70
2008,09,30,15,03,18.60
2008,09,30,15,04,18.60
2008,09,30,15,05,18.50
2008,09,30,15,06,18.50
2008,09,30,15,07,18.40
2008,09,30,15,08,18.40
2008,09,30,15,09,18.40
2008,09,30,15,10,18.30
2008,09,30,15,11,18.30
2008,09,30,15,12,18.20
2008,09,30,15,13,18.20
2008,09,30,15,14,18.20
2008,09,30,15,15,18.20
2008,09,30,15,16,18.20
2008,09,30,15,17,18.20
2008,09,30,15,18,18.20
2008,09,30,15,19,18.20
2008,09,30,15,20,18.30
2008,09,30,15,21,18.30
2008,09,30,15,22,18.40
2008,09,30,15,23,18.50
2008,09,30,15,24,18.50
2008,09,30,15,25,18.60
2008,09,30,15,26,18.70
2008,09,30,15,27,18.80
2008,09,30,15,28,18.80
2008,09,30,15,29,18.90
2008,09,30,15,30,19.00
2008,09,30,15,31,19.00
2008,09,30,15,32,19.10
2008,09,30,15,33,19.10
2008,09,30,15,34,19.10
2008,09,30,15,35,19.10
2008,09,30,15,36,19.10
2008,09,30,15,37,19.10
2008,09,30,15,38,19.00
2008,09,30,15,39,19.00
2008,09,30,15,40,18.90
2008,09,30,15,41,18.90
2008,09,30,15,42,18.90
2008,09,30,15,43,18.90
2008,09,30,15,44,19.00
2008,09,30,15,45,19.00
2008,09,30,15,46,19.00
2008,09,30,15,47,19.00
2008,09,30,15,48,19.00
2008,09,30,15,49,19.00
2008,09,30,15,50,19.00
2008,09,30,15,51,19.00
2008,09,30,15,52,19.10
2008,09,30,15,53,19.10
2008,09,30,15,54,19.10
2008,09,30,15,55,19.10
2008,09,30,15,56,19.20
2008,09,30,15,57,19.20
2008,09,30,15,58,19.20
2008,09,30,15,59,19.20
2008,09,30,16,00,19.30
2008,09,30,16,01,19.30
2008,09,30,16,02,19.30
2008,09,30,16,03,19.30
2008,09,30,16,04,19.30
2008,09,30,16,05,19.20
2008,09,30,16,06,19.10
2008,09,30,16,07,19.10
2008,09,30,16,08,19.00
2008,09,30,16,09,18.90
2008,09,30,16,10,18.80
2008,09,30,16,11,18.80
2008,09,30,16,12,18.70
2008,09,30,16,13,18.70
2008,09,30,16,14,18.60
2008,09,30,16,15,18.60
2008,09,30,16,16,18.50
2008,09,30,16,17,18.50
2008,09,30,16,18,18.40
2008,09,30,16,19,18.40
2008,09,30,16,20,18.40
2008,09,30,16,21,18.40
2008,09,30,16,22,18.40
2008,09,30,16,23,18.40
2008,09,30,16,24,18.40
2008,09,30,16,25,18.40
2008,09,30,16,26,18.40
2008,09,30,16,27,18.30
2008,09,30,16,28,18.30
2008,09,30,16,29,18.30
2008,09,30,16,30,18.20
2008,09,30,16,31,18.20
2008,09,30,16,32,18.20
2008,09,30,16,33,18.10
2008,09,30,16,34,18.10
2008,09,30,16,35,18.10
2008,09,30,16,36,18.10
2008,09,30,16,37,18.10
2008,09,30,16,38,18.00
2008,09,30,16,39,18.00
2008,09,30,16,40,18.00
2008,09,30,16,41,18.00
2008,09,30,16,42,18.00
2008,09,30,16,43,18.00
2008,09,30,16,44,18.00
2008,09,30,16,45,18.00
2008,09,30,16,46,17.90
2008,09,30,16,47,17.90
2008,09,30,16,48,17.80
2008,09,30,16,49,17.70
2008,09,30,16,50,17.60
2008,09,30,16,51,17.50
2008,09,30,16,52,17.30
2008,09,30,16,53,17.20
2008,09,30,16,54,17.10
2008,09,30,16,55,17.00
2008,09,30,16,56,17.00
2008,09,30,16,57,16.90
2008,09,30,16,58,16.80
2008,09,30,16,59,16.80
2008,09,30,17,00,16.70
2008,09,30,17,01,16.70
2008,09,30,17,02,16.70
2008,09,30,17,03,16.60
2008,09,30,17,04,16.60
2008,09,30,17,05,16.60
2008,09,30,17,06,16.60
2008,09,30,17,07,16.60
2008,09,30,17,08,16.60
2008,09,30,17,09,16.60
2008,09,30,17,10,16.60
2008,09,30,17,11,16.60
2008,09,30,17,12,16.60
2008,09,30,17,13,16.70
2008,09,30,17,14,16.70
2008,09,30,17,15,16.70
2008,09,30,17,16,16.70
2008,09,30,17,17,16.80
2008,09,30,17,18,16.80
2008,09,30,17,19,16.80
2008,09,30,17,20,16.80
2008,09,30,17,21,16.80
2008,09,30,17,22,16.80
2008,09,30,17,23,16.90
2008,09,30,17,24,16.90